| time (UTC) | temp C | wind direction | speed KPH | gust KPH | rain 1hr cm | rain 24hr cm | rain mn cm | humidity % | barometer mb |
| 20260504191926 | 25 | 174 | 12.9 | 16.1 | 0.00 | 0.00 | 0.00 | 45 | 1014.1 |
| 20260504191423 | 25 | 172 | 14.5 | 16.1 | 0.00 | 0.00 | 0.00 | 45 | 1014.1 |
| 20260504190918 | 25 | 225 | 11.3 | 14.5 | 0.00 | 0.00 | 0.00 | 45 | 1014.3 |
| 20260504190414 | 25 | 202 | 11.3 | 17.7 | 0.00 | 0.00 | 0.00 | 48 | 1014.1 |
| 20260504185911 | 25 | 192 | 1.6 | 1.6 | 0.00 | 0.00 | 0.00 | 48 | 1014.2 |
| 20260504185408 | 25 | 220 | 4.8 | 4.8 | 0.00 | 0.00 | 0.00 | 47 | 1014.1 |
| 20260504184904 | 25 | 187 | 8.0 | 9.7 | 0.00 | 0.00 | 0.00 | 50 | 1014.3 |
| 20260504184400 | 25 | 222 | 4.8 | 9.7 | 0.00 | 0.00 | 0.00 | 46 | 1014.2 |
| 20260504183856 | 25 | 292 | 4.8 | 4.8 | 0.00 | 0.00 | 0.00 | 47 | 1014.2 |
| 20260504183354 | 25 | 192 | 1.6 | 1.6 | 0.00 | 0.00 | 0.00 | 46 | 1014.4 |
| 20260504182851 | 26 | 140 | 6.4 | 9.7 | 0.00 | 0.00 | 0.00 | 47 | 1014.1 |
| 20260504182348 | 24 | 221 | 11.3 | 14.5 | 0.00 | 0.00 | 0.00 | 47 | 1014.6 |
| 20260504181845 | 25 | 228 | 8.0 | 14.5 | 0.00 | 0.00 | 0.00 | 46 | 1014.7 |
| 20260504181342 | 24 | 169 | 9.7 | 11.3 | 0.00 | 0.00 | 0.00 | 52 | 1014.5 |
| 20260504180841 | 23 | 224 | 11.3 | 14.5 | 0.00 | 0.00 | 0.00 | 52 | 1014.7 |
| 20260504180339 | 24 | 191 | 11.3 | 12.9 | 0.00 | 0.00 | 0.00 | 49 | 1014.9 |
| 20260504175837 | 23 | 183 | 3.2 | 4.8 | 0.00 | 0.00 | 0.00 | 48 | 1014.9 |
| 20260504175333 | 24 | 215 | 4.8 | 4.8 | 0.00 | 0.00 | 0.00 | 49 | 1014.8 |
| 20260504174832 | 24 | 204 | 8.0 | 11.3 | 0.00 | 0.00 | 0.00 | 49 | 1014.9 |
| 20260504174329 | 24 | 220 | 4.8 | 9.7 | 0.00 | 0.00 | 0.00 | 52 | 1015.0 |
| 20260504173826 | 23 | 185 | 4.8 | 9.7 | 0.00 | 0.00 | 0.00 | 47 | 1015.0 |
| 20260504173322 | 24 | 225 | 14.5 | 16.1 | 0.00 | 0.00 | 0.00 | 52 | 1014.9 |
| 20260504172820 | 25 | 185 | 8.0 | 9.7 | 0.00 | 0.00 | 0.00 | 54 | 1015.0 |
| 20260504172316 | 25 | 196 | 4.8 | 4.8 | 0.00 | 0.00 | 0.00 | 54 | 1015.3 |
| 20260504171812 | 25 | 210 | 1.6 | 3.2 | 0.00 | 0.00 | 0.00 | 49 | 1015.3 |
| 20260504171309 | 24 | 188 | 4.8 | 4.8 | 0.00 | 0.00 | 0.00 | 51 | 1015.8 |
| 20260504170806 | 24 | 184 | 3.2 | 4.8 | 0.00 | 0.00 | 0.00 | 52 | 1015.5 |
| 20260504170303 | 23 | 214 | 11.3 | 14.5 | 0.00 | 0.00 | 0.00 | 52 | 1015.6 |
| 20260504160221 | 22 | 215 | 3.2 | 4.8 | 0.00 | 0.00 | 0.00 | 56 | 1016.4 |
| 20260504151150 | 22 | 204 | 9.7 | 11.3 | 0.00 | 0.00 | 0.00 | 60 | 1016.5 |
| 20260504150647 | 21 | 212 | 4.8 | 4.8 | 0.00 | 0.00 | 0.00 | 63 | 1016.5 |
| 20260504150143 | 20 | 189 | 6.4 | 8.0 | 0.00 | 0.00 | 0.00 | 63 | 1016.4 |
| 20260504141113 | 18 | 206 | 4.8 | 4.8 | 0.00 | 0.00 | 0.00 | 70 | 1016.9 |
| 20260504140609 | 18 | 179 | 1.6 | 3.2 | 0.00 | 0.00 | 0.00 | 71 | 1016.5 |
| 20260504140105 | 18 | 183 | 3.2 | 3.2 | 0.00 | 0.00 | 0.00 | 72 | 1016.6 |
| 20260504130533 | 13 | 194 | 3.2 | 3.2 | 0.00 | 0.00 | 0.00 | 85 | 1016.9 |
| 20260504110421 | 7 | 207 | 1.6 | 1.6 | 0.00 | 0.00 | 0.00 | 99 | 1016.0 |
| 20260504100337 | 8 | 193 | 0.0 | 0.0 | 0.00 | 0.00 | 0.00 | 99 | 1016.1 |
| 20260504081731 | 8 | 213 | 1.6 | 1.6 | 0.00 | 0.00 | 0.00 | 99 | 1015.9 |
| 20260504081227 | 7 | 214 | 0.0 | 0.0 | 0.00 | 0.00 | 0.00 | 99 | 1015.9 |
| 20260504080724 | 7 | 190 | 0.0 | 0.0 | 0.00 | 0.00 | 0.00 | 99 | 1015.9 |
| 20260504080221 | 7 | 186 | 1.6 | 1.6 | 0.00 | 0.00 | 0.00 | 99 | 1016.1 |
| 20260504070148 | 7 | 190 | 0.0 | 0.0 | 0.00 | 0.00 | 0.00 | 99 | 1016.9 |
| 20260504060109 | 7 | 188 | 0.0 | 0.0 | 0.00 | 0.00 | 0.00 | 99 | 1017.3 |
| 20260504050537 | 7 | 198 | 0.0 | 0.0 | 0.00 | 0.00 | 0.00 | 99 | 1017.8 |
| 20260504045531 | 8 | 198 | 0.0 | 0.0 | 0.00 | 0.00 | 0.00 | 99 | 1017.7 |
| 20260504045026 | 8 | 198 | 0.0 | 0.0 | 0.00 | 0.00 | 0.00 | 99 | 1017.6 |
| 20260504044524 | 8 | 198 | 0.0 | 0.0 | 0.00 | 0.00 | 0.00 | 99 | 1017.8 |
| 20260504044020 | 8 | 198 | 0.0 | 0.0 | 0.00 | 0.00 | 0.00 | 99 | 1017.6 |
| 20260504043517 | 8 | 198 | 0.0 | 0.0 | 0.00 | 0.00 | 0.00 | 99 | 1017.7 |
| 20260504043015 | 8 | 198 | 0.0 | 0.0 | 0.00 | 0.00 | 0.00 | 99 | 1017.9 |
| 20260504042512 | 8 | 198 | 0.0 | 0.0 | 0.00 | 0.00 | 0.00 | 99 | 1017.9 |
| 20260504042009 | 8 | 198 | 0.0 | 0.0 | 0.00 | 0.00 | 0.00 | 99 | 1017.8 |
| 20260504041504 | 8 | 198 | 0.0 | 0.0 | 0.00 | 0.00 | 0.00 | 99 | 1018.0 |
| 20260504041000 | 8 | 198 | 0.0 | 0.0 | 0.00 | 0.00 | 0.00 | 99 | 1017.8 |
| 20260504040458 | 9 | 198 | 0.0 | 0.0 | 0.00 | 0.00 | 0.00 | 99 | 1017.9 |
| 20260504035954 | 8 | 198 | 0.0 | 0.0 | 0.00 | 0.00 | 0.00 | 99 | 1017.7 |
| 20260504035452 | 9 | 198 | 0.0 | 0.0 | 0.00 | 0.00 | 0.00 | 99 | 1017.9 |
| 20260504034948 | 9 | 198 | 0.0 | 0.0 | 0.00 | 0.00 | 0.00 | 99 | 1017.9 |
| 20260504034446 | 9 | 198 | 0.0 | 0.0 | 0.00 | 0.00 | 0.00 | 99 | 1018.0 |
| 20260504033942 | 9 | 198 | 0.0 | 0.0 | 0.00 | 0.00 | 0.00 | 98 | 1018.1 |
| 20260504033440 | 9 | 198 | 0.0 | 0.0 | 0.00 | 0.00 | 0.00 | 98 | 1018.1 |
| 20260504032937 | 9 | 198 | 0.0 | 0.0 | 0.00 | 0.00 | 0.00 | 98 | 1018.0 |
| 20260504032434 | 9 | 198 | 0.0 | 0.0 | 0.00 | 0.00 | 0.00 | 98 | 1017.9 |
| 20260504031931 | 10 | 198 | 0.0 | 0.0 | 0.00 | 0.00 | 0.00 | 98 | 1018.0 |
| 20260504031428 | 10 | 198 | 0.0 | 0.0 | 0.00 | 0.00 | 0.00 | 97 | 1018.1 |
| 20260504030925 | 10 | 198 | 0.0 | 0.0 | 0.00 | 0.00 | 0.00 | 97 | 1017.9 |
| 20260504030422 | 10 | 198 | 0.0 | 0.0 | 0.00 | 0.00 | 0.00 | 96 | 1017.9 |
| 20260504025918 | 10 | 198 | 0.0 | 0.0 | 0.00 | 0.00 | 0.00 | 96 | 1017.8 |
| 20260504025415 | 10 | 198 | 0.0 | 0.0 | 0.00 | 0.00 | 0.00 | 96 | 1018.2 |
| 20260504024912 | 10 | 198 | 0.0 | 1.6 | 0.00 | 0.00 | 0.00 | 96 | 1017.8 |
| 20260504024409 | 10 | 198 | 0.0 | 0.0 | 0.00 | 0.00 | 0.00 | 95 | 1018.0 |
| 20260504023906 | 10 | 198 | 0.0 | 0.0 | 0.00 | 0.00 | 0.00 | 94 | 1017.8 |
| 20260504023402 | 10 | 198 | 0.0 | 0.0 | 0.00 | 0.00 | 0.00 | 94 | 1018.0 |
| 20260504022857 | 10 | 198 | 0.0 | 0.0 | 0.00 | 0.00 | 0.00 | 94 | 1018.0 |
| 20260504022354 | 11 | 198 | 0.0 | 0.0 | 0.00 | 0.00 | 0.00 | 94 | 1017.8 |
| 20260504021850 | 11 | 198 | 0.0 | 0.0 | 0.00 | 0.00 | 0.00 | 92 | 1017.8 |
| 20260504021348 | 11 | 198 | 0.0 | 0.0 | 0.00 | 0.00 | 0.00 | 91 | 1017.8 |
| 20260504020845 | 11 | 198 | 0.0 | 0.0 | 0.00 | 0.00 | 0.00 | 91 | 1017.5 |
| 20260504020342 | 11 | 198 | 0.0 | 0.0 | 0.00 | 0.00 | 0.00 | 90 | 1017.6 |
| 20260504015838 | 11 | 198 | 0.0 | 0.0 | 0.00 | 0.00 | 0.00 | 90 | 1017.6 |
| 20260504015334 | 11 | 198 | 0.0 | 0.0 | 0.00 | 0.00 | 0.00 | 89 | 1017.6 |
| 20260504014831 | 12 | 198 | 0.0 | 0.0 | 0.00 | 0.00 | 0.00 | 88 | 1017.4 |
| 20260504014326 | 12 | 198 | 0.0 | 0.0 | 0.00 | 0.00 | 0.00 | 88 | 1017.4 |
| 20260504013824 | 12 | 198 | 0.0 | 0.0 | 0.00 | 0.00 | 0.00 | 88 | 1017.3 |
| 20260504013322 | 12 | 198 | 0.0 | 0.0 | 0.00 | 0.00 | 0.00 | 86 | 1017.3 |
| 20260504012819 | 12 | 198 | 0.0 | 0.0 | 0.00 | 0.00 | 0.00 | 85 | 1017.3 |
| 20260504012316 | 12 | 198 | 0.0 | 0.0 | 0.00 | 0.00 | 0.00 | 84 | 1017.3 |
| 20260504011814 | 13 | 198 | 0.0 | 0.0 | 0.00 | 0.00 | 0.00 | 83 | 1017.2 |
| 20260504011310 | 13 | 198 | 0.0 | 0.0 | 0.00 | 0.00 | 0.00 | 83 | 1017.2 |
| 20260504010806 | 13 | 198 | 0.0 | 0.0 | 0.00 | 0.00 | 0.00 | 81 | 1017.2 |
| 20260504010301 | 13 | 198 | 0.0 | 0.0 | 0.00 | 0.00 | 0.00 | 81 | 1017.1 |
| 20260504005758 | 14 | 198 | 0.0 | 0.0 | 0.00 | 0.00 | 0.00 | 79 | 1017.0 |
| 20260504005255 | 14 | 198 | 0.0 | 0.0 | 0.00 | 0.00 | 0.00 | 79 | 1017.1 |
| 20260504004753 | 15 | 198 | 0.0 | 0.0 | 0.00 | 0.00 | 0.00 | 77 | 1016.9 |
| 20260504004250 | 15 | 198 | 0.0 | 0.0 | 0.00 | 0.00 | 0.00 | 77 | 1017.0 |
| 20260504003746 | 15 | 198 | 0.0 | 0.0 | 0.00 | 0.00 | 0.00 | 76 | 1016.9 |
| 20260504003243 | 16 | 198 | 0.0 | 0.0 | 0.00 | 0.00 | 0.00 | 76 | 1017.1 |
| 20260504002740 | 16 | 198 | 0.0 | 0.0 | 0.00 | 0.00 | 0.00 | 73 | 1017.1 |
| 20260504002237 | 16 | 198 | 0.0 | 0.0 | 0.00 | 0.00 | 0.00 | 71 | 1017.0 |
| 20260504001735 | 17 | 198 | 0.0 | 0.0 | 0.00 | 0.00 | 0.00 | 69 | 1017.1 |
| 20260504001231 | 17 | 198 | 0.0 | 0.0 | 0.00 | 0.00 | 0.00 | 70 | 1017.1 |
| 20260504000728 | 17 | 198 | 0.0 | 0.0 | 0.00 | 0.00 | 0.00 | 67 | 1017.1 |
| 20260504000226 | 18 | 198 | 0.0 | 0.0 | 0.00 | 0.00 | 0.00 | 66 | 1017.0 |
| 20260503235723 | 18 | 213 | 0.0 | 0.0 | 0.00 | 0.00 | 0.00 | 66 | 1017.0 |
| 20260503235220 | 18 | 212 | 0.0 | 0.0 | 0.00 | 0.00 | 0.00 | 66 | 1016.9 |
| 20260503234718 | 18 | 200 | 0.0 | 0.0 | 0.00 | 0.00 | 0.00 | 65 | 1016.9 |
| 20260503234216 | 19 | 200 | 0.0 | 0.0 | 0.00 | 0.00 | 0.00 | 64 | 1016.9 |
| 20260503233713 | 20 | 200 | 0.0 | 0.0 | 0.00 | 0.00 | 0.00 | 56 | 1017.1 |
| 20260503233208 | 20 | 201 | 0.0 | 0.0 | 0.00 | 0.00 | 0.00 | 55 | 1017.0 |
| 20260503232705 | 20 | 186 | 1.6 | 1.6 | 0.00 | 0.00 | 0.00 | 52 | 1017.1 |
| 20260503232202 | 21 | 214 | 0.0 | 0.0 | 0.00 | 0.00 | 0.00 | 51 | 1017.2 |
| 20260503231701 | 21 | 278 | 3.2 | 3.2 | 0.00 | 0.00 | 0.00 | 46 | 1017.3 |
| 20260503231157 | 21 | 281 | 4.8 | 4.8 | 0.00 | 0.00 | 0.00 | 45 | 1017.6 |
| 20260503230653 | 21 | 276 | 3.2 | 3.2 | 0.00 | 0.00 | 0.00 | 44 | 1017.3 |
| 20260503230151 | 21 | 197 | 1.6 | 1.6 | 0.00 | 0.00 | 0.00 | 46 | 1017.1 |
| 20260503225648 | 21 | 199 | 1.6 | 1.6 | 0.00 | 0.00 | 0.00 | 44 | 1017.4 |
| 20260503225148 | 21 | 215 | 3.2 | 3.2 | 0.00 | 0.00 | 0.00 | 45 | 1017.1 |
| 20260503224640 | 21 | 216 | 3.2 | 3.2 | 0.00 | 0.00 | 0.00 | 44 | 1017.2 |
| 20260503224138 | 21 | 288 | 1.6 | 3.2 | 0.00 | 0.00 | 0.00 | 45 | 1017.3 |
| 20260503223635 | 21 | 222 | 1.6 | 1.6 | 0.00 | 0.00 | 0.00 | 43 | 1017.3 |
| 20260503223131 | 21 | 223 | 6.4 | 9.7 | 0.00 | 0.00 | 0.00 | 46 | 1017.3 |
| 20260503222629 | 21 | 199 | 4.8 | 4.8 | 0.00 | 0.00 | 0.00 | 42 | 1017.3 |
| 20260503222126 | 21 | 197 | 4.8 | 4.8 | 0.00 | 0.00 | 0.00 | 41 | 1017.2 |
| 20260503221625 | 21 | 216 | 4.8 | 8.0 | 0.00 | 0.00 | 0.00 | 41 | 1017.3 |
| 20260503221122 | 21 | 326 | 4.8 | 8.0 | 0.00 | 0.00 | 0.00 | 42 | 1017.5 |
| 20260503220618 | 21 | 194 | 4.8 | 4.8 | 0.00 | 0.00 | 0.00 | 43 | 1017.6 |
| 20260503220115 | 21 | 200 | 1.6 | 1.6 | 0.00 | 0.00 | 0.00 | 41 | 1017.6 |
| 20260503215612 | 21 | 295 | 1.6 | 4.8 | 0.00 | 0.00 | 0.00 | 43 | 1017.5 |
| 20260503215108 | 21 | 213 | 3.2 | 4.8 | 0.00 | 0.00 | 0.00 | 43 | 1017.6 |
| 20260503214607 | 21 | 195 | 0.0 | 1.6 | 0.00 | 0.00 | 0.00 | 41 | 1017.6 |
| 20260503214103 | 21 | 198 | 1.6 | 1.6 | 0.00 | 0.00 | 0.00 | 42 | 1017.6 |
| 20260503213602 | 21 | 232 | 4.8 | 8.0 | 0.00 | 0.00 | 0.00 | 42 | 1017.7 |
| 20260503213058 | 21 | 209 | 1.6 | 3.2 | 0.00 | 0.00 | 0.00 | 43 | 1017.7 |
| 20260503212555 | 22 | 212 | 9.7 | 12.9 | 0.00 | 0.00 | 0.00 | 39 | 1017.9 |
| 20260503212053 | 21 | 206 | 1.6 | 4.8 | 0.00 | 0.00 | 0.00 | 44 | 1018.1 |
| 20260503211550 | 22 | 215 | 3.2 | 3.2 | 0.00 | 0.00 | 0.00 | 41 | 1018.2 |
| 20260503211045 | 22 | 255 | 6.4 | 9.7 | 0.00 | 0.00 | 0.00 | 41 | 1018.4 |
| 20260503210542 | 22 | 222 | 0.0 | 1.6 | 0.00 | 0.00 | 0.00 | 41 | 1018.1 |
| 20260503210038 | 21 | 210 | 3.2 | 3.2 | 0.00 | 0.00 | 0.00 | 40 | 1018.0 |
| 20260503205535 | 21 | 239 | 1.6 | 3.2 | 0.00 | 0.00 | 0.00 | 45 | 1018.3 |
| 20260503205031 | 21 | 187 | 11.3 | 11.3 | 0.00 | 0.00 | 0.00 | 41 | 1018.4 |
| 20260503204528 | 22 | 205 | 1.6 | 1.6 | 0.00 | 0.00 | 0.00 | 43 | 1018.6 |
| 20260503204025 | 22 | 325 | 4.8 | 8.0 | 0.00 | 0.00 | 0.00 | 40 | 1018.5 |
| 20260503203523 | 22 | 213 | 3.2 | 3.2 | 0.00 | 0.00 | 0.00 | 39 | 1018.5 |
| 20260503203019 | 22 | 213 | 3.2 | 3.2 | 0.00 | 0.00 | 0.00 | 38 | 1018.5 |
| 20260503202517 | 22 | 217 | 3.2 | 4.8 | 0.00 | 0.00 | 0.00 | 38 | 1019.0 |
| 20260503202015 | 22 | 231 | 3.2 | 3.2 | 0.00 | 0.00 | 0.00 | 40 | 1019.0 |
| 20260503201513 | 22 | 190 | 4.8 | 9.7 | 0.00 | 0.00 | 0.00 | 43 | 1019.0 |
| 20260503201010 | 22 | 295 | 4.8 | 4.8 | 0.00 | 0.00 | 0.00 | 39 | 1019.1 |
| 20260503200506 | 22 | 341 | 8.0 | 11.3 | 0.00 | 0.00 | 0.00 | 38 | 1019.6 |
| 20260503200002 | 22 | 208 | 3.2 | 3.2 | 0.00 | 0.00 | 0.00 | 42 | 1019.3 |
| 20260503195500 | 21 | 318 | 3.2 | 4.8 | 0.00 | 0.00 | 0.00 | 41 | 1019.4 |
| 20260503194956 | 21 | 223 | 6.4 | 8.0 | 0.00 | 0.00 | 0.00 | 43 | 1019.7 |
| 20260503194454 | 21 | 222 | 4.8 | 8.0 | 0.00 | 0.00 | 0.00 | 42 | 1019.7 |
| 20260503193949 | 21 | 227 | 14.5 | 20.9 | 0.00 | 0.00 | 0.00 | 41 | 1019.8 |
| 20260503193445 | 22 | 217 | 4.8 | 8.0 | 0.00 | 0.00 | 0.00 | 42 | 1020.0 |
| 20260503192940 | 21 | 301 | 6.4 | 8.0 | 0.00 | 0.00 | 0.00 | 42 | 1020.0 |
| 20260503192437 | 21 | 305 | 4.8 | 8.0 | 0.00 | 0.00 | 0.00 | 43 | 1020.1 |